This is the latest recevied weather packets stored in our database for station/object NC4M. If no packets are shown the sender has not sent any weather packets the latest 10 day(s).
| Time | Temp. | Humidity | Pressure | Rain* | Wind** | Luminosity | Snow |
|---|---|---|---|---|---|---|---|
| 1777999650 | 11.67° C | 79% | 1010.7 hPa | 0 mm | - | 48 W/m² | - |
| 1777999347 | 11.67° C | 79% | 1011.1 hPa | 0 mm | - | 43 W/m² | - |
| 1777999045 | 11.67° C | 79% | 1011.1 hPa | 0 mm | - | 45 W/m² | - |
| 1777998744 | 11.67° C | 80% | 1010.9 hPa | 0 mm | - | 52 W/m² | - |
| 1777998441 | 11.67° C | 80% | 1010.7 hPa | 0 mm | - | 51 W/m² | - |
| 1777998138 | 11.67° C | 79% | 1011.1 hPa | 0 mm | - | 46 W/m² | - |
| 1777997834 | 11.67° C | 78% | 1010.3 hPa | 0 mm | - | 79 W/m² | - |
| 1777997532 | 12.22° C | 77% | 1010 hPa | 0 mm | - | 132 W/m² | - |
| 1777997230 | 12.22° C | 78% | 1010 hPa | 0 mm | - | 133 W/m² | - |
| 1777996927 | 12.22° C | 77% | 1009.8 hPa | 0 mm | - | 150 W/m² | - |
| 1777996623 | 12.22° C | 78% | 1009.4 hPa | 0 mm | - | 171 W/m² | - |
| 1777996319 | 12.22° C | 78% | 1009.4 hPa | 0 mm | - | 239 W/m² | - |
| 1777996016 | 12.22° C | 77% | 1009.4 hPa | 0 mm | - | 232 W/m² | - |
| 1777995712 | 12.22° C | 77% | 1009.5 hPa | 0 mm | - | 169 W/m² | - |
| 1777995409 | 12.22° C | 78% | 1009.5 hPa | 0 mm | - | 248 W/m² | - |
| 1777995106 | 11.67° C | 83% | 1009.8 hPa | 0 mm | - | 238 W/m² | - |
| 1777994803 | 11.67° C | 81% | 1009.9 hPa | 0 mm | - | 177 W/m² | - |
| 1777994499 | 11.11° C | 81% | 1009.9 hPa | 0 mm | - | 163 W/m² | - |
| 1777994194 | 11.11° C | 82% | 1009.9 hPa | 0 mm | - | 135 W/m² | - |
| 1777993892 | 11.11° C | 82% | 1010.1 hPa | 0 mm | - | 105 W/m² | - |
| 1777993588 | 11.11° C | 83% | 1010.2 hPa | 0 mm | - | 83 W/m² | - |
| 1777993285 | 11.11° C | 84% | 1010 hPa | 0 mm | - | 81 W/m² | - |
| 1777992980 | 11.11° C | 86% | 1009.9 hPa | 0 mm | - | 81 W/m² | - |
| 1777992679 | 11.11° C | 85% | 1009.8 hPa | 0 mm | - | 66 W/m² | - |
| 1777992376 | 11.11° C | 83% | 1009.9 hPa | 0 mm | - | 63 W/m² | - |
* Rain latest hour (hover to see other rain measurements)
** Current wind speed in m/s (hover to see current wind gust speed)